KD7RJ Weather Reports


time (UTC)temp
F
wind
direction
speed
knots
gust
knots
rain 1hr
in
rain 24hr
in
rain mn
in
humidity
%
barometer
mb
20260507134522 52 50 0.0 0.0 0.00 0.04 0.04 81 1019.9
20260507133022 52 50 0.0 1.7 0.00 0.04 0.04 81 1019.8
20260507131526 52 50 0.0 0.0 0.00 0.04 0.04 82 1019.6
20260507130020 52 50 0.0 0.0 0.00 0.04 0.04 82 1019.7
20260507124519 52 50 0.0 0.0 0.00 0.04 0.04 82 1019.7
20260507123018 52 50 0.0 0.0 0.00 0.04 0.04 83 1019.7
20260507121604 52 50 0.0 0.0 0.00 0.04 0.04 83 1019.8
20260507114542 52 50 0.0 0.0 0.00 0.04 0.04 85 1020.0
20260507113041 52 50 0.0 0.0 0.00 0.04 0.04 83 1020.0
20260507111523 52 50 0.0 0.0 0.00 0.04 0.04 82 1020.0
20260507110026 53 50 0.0 0.0 0.00 0.04 0.04 81 1020.1
20260507104504 53 50 0.0 0.0 0.00 0.04 0.04 81 1020.1
20260507103002 53 50 0.0 0.0 0.00 0.04 0.04 80 1020.3
20260507101603 53 50 0.0 0.0 0.00 0.04 0.04 80 1020.4
20260507100054 53 50 0.0 0.0 0.00 0.04 0.04 79 1020.4
20260507094543 53 50 0.0 0.0 0.00 0.04 0.04 79 1020.5
20260507093025 53 50 0.0 0.0 0.00 0.04 0.04 80 1020.6
20260507091524 54 50 0.0 1.7 0.00 0.04 0.04 80 1020.8
20260507090006 54 50 0.0 0.0 0.00 0.04 0.04 80 1020.9
20260507084505 54 50 0.0 0.0 0.00 0.04 0.04 80 1020.8
20260507083104 54 50 0.0 0.0 0.00 0.04 0.04 80 1020.8
20260507081556 54 50 0.0 0.0 0.00 0.04 0.04 81 1020.8
20260507080028 54 50 0.0 0.0 0.00 0.04 0.04 81 1020.8
20260507074527 54 50 0.0 0.0 0.00 0.04 0.04 82 1020.8
20260507073009 54 50 0.0 1.7 0.00 0.04 0.04 83 1020.8
20260507071511 54 50 0.0 2.6 0.00 0.04 0.04 82 1020.7
20260507070051 54 50 0.0 2.6 0.00 0.04 0.04 82 1020.7
20260507064550 54 51 0.0 0.0 0.00 0.04 0.04 83 1020.7
20260507063034 54 50 0.0 0.0 0.00 0.04 0.04 83 1020.7
20260507061532 54 53 0.0 3.5 0.00 0.04 0.04 83 1020.6
20260507060019 54 53 0.0 3.5 0.00 0.04 0.04 83 1020.8
20260507054512 55 56 0.0 6.1 0.00 0.04 0.04 83 1020.6
20260507053051 55 53 0.0 6.1 0.00 0.04 0.04 82 1020.5
20260507051549 56 40 0.0 6.1 0.00 0.04 0.04 82 1020.6
20260507050035 56 27 0.0 0.0 0.00 0.04 0.04 81 1020.6
20260507044536 57 45 0.0 3.5 0.00 0.04 0.04 81 1020.5
20260507043010 57 28 0.0 6.1 0.00 0.04 0.04 81 1020.5
20260507041522 57 81 0.0 7.0 0.00 0.04 0.04 81 1020.4
20260507040048 57 32 1.7 8.7 0.00 0.04 0.04 81 1020.2
20260507034548 58 69 1.7 7.8 0.00 0.04 0.04 80 1020.0
20260507033029 58 63 0.0 7.0 0.00 0.04 0.04 80 1019.8
20260507031527 59 68 1.7 5.2 0.00 0.04 0.04 79 1019.6
20260507030003 59 72 0.0 7.0 0.00 0.04 0.04 78 1019.5
20260507024630 60 82 0.9 6.1 0.00 0.04 0.04 77 1019.3
20260507023042 61 61 0.0 6.1 0.01 0.04 0.04 77 1019.1
20260507021538 61 74 0.9 7.8 0.01 0.04 0.04 76 1019.1
20260507020018 62 51 3.5 10.4 0.02 0.04 0.04 75 1019.1
20260507014518 63 27 0.9 12.2 0.02 0.04 0.04 72 1019.2
20260507013055 64 24 4.3 10.4 0.01 0.03 0.03 71 1019.1
20260507011553 64 53 3.5 11.3 0.01 0.03 0.03 71 1019.3
20260507010032 65 44 5.2 12.2 0.01 0.02 0.02 69 1019.3
20260507004535 66 77 5.2 10.4 0.02 0.02 0.02 69 1019.2
20260507003011 66 45 4.3 12.2 0.02 0.02 0.02 69 1019.1
20260507001510 66 46 1.7 11.3 0.01 0.01 0.01 70 1019.1
20260507000053 66 34 4.3 9.6 0.01 0.01 0.01 70 1019.1
20260506234556 67 40 1.7 8.7 0.00 0.00 0.00 71 1019.1
20260506233028 67 29 0.9 7.8 0.00 0.00 0.00 70 1019.0
20260506231532 68 24 3.5 7.8 0.00 0.00 0.00 70 1019.1
20260506230004 70 30 1.7 6.1 0.00 0.00 0.00 67 1019.1
20260506224501 70 25 3.5 7.0 0.00 0.00 0.00 66 1019.3
20260506223051 71 97 0.9 7.0 0.00 0.00 0.00 66 1019.4
20260506221540 70 5 1.7 7.0 0.00 0.00 0.00 66 1019.5
20260506220024 70 128 0.0 5.2 0.00 0.00 0.00 68 1019.5
20260506214519 69 106 0.0 5.2 0.00 0.00 0.00 68 1019.5
20260506213001 68 61 1.7 6.1 0.00 0.00 0.00 70 1019.5
20260506211502 67 45 0.9 6.1 0.00 0.00 0.00 70 1019.5
20260506210043 68 58 3.5 7.8 0.00 0.00 0.00 69 1019.8
20260506204549 69 86 0.0 5.2 0.00 0.00 0.00 67 1019.8
20260506203028 68 351 0.0 6.1 0.00 0.00 0.00 69 1019.8
20260506201531 67 196 2.6 7.8 0.00 0.00 0.00 71 1019.8
20260506200005 65 165 2.6 6.1 0.00 0.00 0.00 75 1019.8
20260506194503 64 123 0.0 4.3 0.00 0.00 0.00 77 1020.1
20260506193045 62 70 0.0 4.3 0.00 0.00 0.00 80 1020.1
20260506191547 61 61 0.0 4.3 0.00 0.00 0.00 81 1020.3
20260506190027 62 49 2.6 5.2 0.00 0.00 0.00 80 1020.2
20260506184525 61 74 1.7 4.3 0.00 0.00 0.00 81 1020.2
20260506183007 61 325 0.0 3.5 0.00 0.00 0.00 83 1020.1
20260506181509 60 296 0.0 2.6 0.00 0.00 0.00 83 1020.0
20260506180052 60 246 0.0 3.5 0.00 0.00 0.00 83 1020.2
20260506174548 59 240 0.9 3.5 0.00 0.00 0.00 84 1020.1
20260506173030 59 240 1.7 3.5 0.00 0.00 0.00 85 1020.0
20260506171532 59 210 0.0 4.3 0.00 0.00 0.00 85 1020.0
20260506170018 59 178 0.0 3.5 0.00 0.00 0.00 86 1019.9
20260506164516 59 178 0.0 2.6 0.00 0.00 0.00 87 1019.9
20260506163018 58 178 0.9 4.3 0.00 0.00 0.00 86 1020.0
20260506161516 58 84 0.0 2.6 0.00 0.00 0.00 86 1020.0
20260506160017 58 84 0.0 5.2 0.00 0.00 0.00 87 1019.6
20260506154514 57 73 0.0 2.6 0.00 0.00 0.00 89 1019.4
20260506153013 56 73 0.0 4.3 0.00 0.00 0.00 89 1019.2
20260506151514 56 65 0.0 4.3 0.00 0.00 0.00 90 1019.4
20260506150056 56 64 0.0 0.0 0.00 0.00 0.00 90 1019.9
20260506144604 56 64 0.0 3.5 0.00 0.00 0.00 89 1019.8
20260506143036 56 64 0.0 0.0 0.00 0.00 0.00 89 1019.5
20260506141534 56 66 0.9 4.3 0.00 0.00 0.00 89 1019.4
20260506140014 56 69 0.9 4.3 0.00 0.00 0.00 89 1018.8